Date String (YYYY-MM-DD hh:mm:ss) UTC,Instrument flags,absolute air pressure of the measurement (hPa),sample flow rate (lpm),inlet stack bypass flow (lpm),air temperature of the measurement (°C),ambient temperature measured by the external sensor (°C),aerosol sample conditioner tube jacket temperature (°C),OPC LED temperature (°C),internal box temperature (°C),relative humidity of the measurement (%),span deviation,mass concentration of particles derived from Lorenz-Mie calculation of OPC scattering (μg/m³),mass concentration of particles derived from Lorenz-Mie calculation of OPC scattering (μg/m³),mass concentration of particles derived from Lorenz-Mie calculation of OPC scattering (μg/m³)
DateTimeUTC,F1_M11,P_M11,Q1_M11,Q2_M11,T1_M11,T2_M11,T3_M11,T4_M11,T5_M11,U1_M11,ZSPAN_M11,X0_M11,X2_M11,X1_M11
2023-10-30 03:00:00,SystemResetWarning,0838.9,5.00,000.00,021.1,020.3,000.0,029.4,022.5,9.9,0000.0,0008.58,0006.81,0006.70
2023-10-30 03:01:00,SystemResetWarning,0838.9,5.00,000.00,021.1,020.1,000.0,029.4,022.5,9.9,0000.0,0008.58,0006.81,0006.70
2023-10-30 03:02:00,SystemResetWarning,0838.9,4.99,000.00,021.1,020.0,000.0,029.4,022.4,9.9,0000.3,0008.59,0006.80,0006.69
2023-10-30 03:03:00,SystemResetWarning,0838.9,5.00,000.00,021.0,019.9,000.0,029.4,022.4,9.9,0000.0,0008.57,0006.79,0006.68
2023-10-30 03:04:00,SystemResetWarning,0838.9,5.00,000.00,021.0,019.8,000.0,029.4,022.3,9.9,0000.4,0008.58,0006.79,0006.67
2023-10-30 03:05:00,SystemResetWarning,0838.9,5.00,000.00,021.0,019.7,000.0,029.4,022.2,9.9,0001.8,0008.59,0006.80,0006.67
2023-10-30 03:06:00,SystemResetWarning,0838.9,5.00,000.00,020.9,019.7,000.0,029.4,022.3,9.9,0001.5,0008.58,0006.78,0006.66
2023-10-30 03:07:00,SystemResetWarning,0838.9,5.02,000.00,021.0,020.3,000.0,029.3,022.7,9.8,0000.0,0008.58,0006.77,0006.65
2023-10-30 03:08:00,SystemResetWarning,0839.0,5.00,000.00,021.2,021.2,000.0,029.3,023.1,9.8,0000.3,0008.57,0006.74,0006.62
2023-10-30 03:09:00,SystemResetWarning,0838.9,4.99,000.00,021.3,021.3,000.0,029.4,023.1,9.7,0000.0,0008.58,0006.74,0006.61
2023-10-30 03:10:00,SystemResetWarning,0839.0,5.00,000.00,021.2,021.1,000.0,029.4,022.9,9.7,0001.1,0008.60,0006.73,0006.61
2023-10-30 03:11:00,SystemResetWarning,0838.9,5.00,000.00,021.2,020.9,000.0,029.4,022.8,9.7,0001.8,0008.61,0006.71,0006.58
2023-10-30 03:12:00,SystemResetWarning,0838.8,5.00,000.00,021.2,020.7,000.0,029.5,022.7,9.7,0001.8,0008.62,0006.70,0006.56
2023-10-30 03:13:00,SystemResetWarning,0838.8,5.00,000.00,021.2,020.5,000.0,029.5,022.6,9.7,0001.6,0008.61,0006.69,0006.55
2023-10-30 03:14:00,SystemResetWarning,0838.8,5.02,000.00,021.1,020.3,000.0,029.5,022.5,9.7,0001.0,0008.66,0006.68,0006.54
2023-10-30 03:15:00,SystemResetWarning,0839.0,5.01,000.00,021.1,020.2,000.0,029.5,022.5,9.7,0001.8,0008.68,0006.66,0006.51
2023-10-30 03:16:00,SystemResetWarning,0838.9,4.99,000.00,021.1,020.0,000.0,029.5,022.4,9.7,0001.7,0008.64,0006.61,0006.47
2023-10-30 03:17:00,SystemResetWarning,0838.9,5.00,000.00,021.1,019.9,000.0,029.5,022.4,9.8,0001.9,0008.59,0006.58,0006.43
2023-10-30 03:18:00,SystemResetWarning,0838.9,5.00,000.00,021.0,019.8,000.0,029.5,022.4,9.8,0002.1,0008.53,0006.54,0006.41
2023-10-30 03:19:00,SystemResetWarning,0838.9,5.00,000.00,021.0,019.7,000.0,029.5,022.3,9.8,0002.2,0008.52,0006.53,0006.39
2023-10-30 03:20:00,SystemResetWarning,0838.9,5.00,000.00,021.0,019.7,000.0,029.4,022.2,9.8,0001.6,0008.51,0006.50,0006.36
2023-10-30 03:21:00,SystemResetWarning,0838.9,5.01,000.00,021.0,019.7,000.0,029.4,022.3,9.8,0001.6,0008.46,0006.47,0006.32
2023-10-30 03:22:00,SystemResetWarning,0839.0,5.02,000.00,021.0,020.4,000.0,029.3,022.7,9.7,0001.8,0008.49,0006.45,0006.29
2023-10-30 03:23:00,SystemResetWarning,0838.9,4.99,000.00,021.2,021.2,000.0,029.3,023.1,9.6,0002.3,0008.52,0006.41,0006.25
2023-10-30 03:24:00,SystemResetWarning,0838.9,4.99,000.00,021.3,021.3,000.0,029.4,023.1,9.6,0002.9,0008.48,0006.36,0006.20
2023-10-30 03:25:00,SystemResetWarning,0839.0,4.99,000.00,021.2,021.1,000.0,029.4,022.9,9.6,0002.7,0008.42,0006.33,0006.17
2023-10-30 03:26:00,SystemResetWarning,0838.9,5.02,000.00,021.2,020.8,000.0,029.5,022.7,9.6,0002.1,0008.38,0006.31,0006.14
2023-10-30 03:27:00,SystemResetWarning,0838.9,5.01,000.00,021.2,020.6,000.0,029.5,022.6,9.6,0002.0,0008.41,0006.31,0006.12
2023-10-30 03:28:00,SystemResetWarning,0838.9,4.99,000.00,021.2,020.4,000.0,029.5,022.5,9.6,0002.8,0008.42,0006.30,0006.11
2023-10-30 03:29:00,SystemResetWarning,0838.9,4.99,000.00,021.1,020.3,000.0,029.5,022.5,9.6,0002.8,0008.43,0006.29,0006.09
2023-10-30 03:30:00,SystemResetWarning,0838.9,5.01,000.00,021.1,020.1,000.0,029.5,022.4,9.6,0001.0,0008.42,0006.27,0006.06
2023-10-30 03:31:00,SystemResetWarning,0838.9,5.01,000.00,021.1,020.0,000.0,029.5,022.4,9.6,0000.0,0008.38,0006.24,0006.04
2023-10-30 03:32:00,SystemResetWarning,0838.9,4.99,000.00,021.0,019.9,000.0,029.5,022.3,9.6,0000.0,0008.35,0006.22,0006.02
2023-10-30 03:33:00,SystemResetWarning,0838.9,4.99,000.00,021.0,019.8,000.0,029.5,022.3,9.7,0000.0,0008.27,0006.20,0006.00
2023-10-30 03:34:00,SystemResetWarning,0838.9,4.99,000.00,021.0,019.7,000.0,029.4,022.2,9.7,0000.0,0008.19,0006.20,0006.01
2023-10-30 03:35:00,SystemResetWarning,0839.0,5.01,000.00,021.0,020.1,000.0,029.4,022.6,9.7,0000.0,0008.15,0006.17,0006.00
2023-10-30 03:36:00,SystemResetWarning,0838.9,5.01,000.00,021.1,021.0,000.0,029.3,023.0,9.6,0000.0,0008.12,0006.15,0005.98
2023-10-30 03:37:00,SystemResetWarning,0839.0,4.99,000.00,021.3,021.3,000.0,029.4,023.1,9.6,0000.0,0008.09,0006.14,0005.98
2023-10-30 03:38:00,SystemResetWarning,0839.0,4.99,000.00,021.3,021.1,000.0,029.4,022.9,9.5,0000.0,0008.03,0006.11,0005.96
2023-10-30 03:39:00,SystemResetWarning,0839.1,5.01,000.00,021.2,020.9,000.0,029.5,022.8,9.5,0000.0,0008.00,0006.09,0005.94
2023-10-30 03:40:00,SystemResetWarning,0839.1,5.01,000.00,021.2,020.7,000.0,029.5,022.7,9.5,0000.0,0008.11,0006.09,0005.94
2023-10-30 03:41:00,SystemResetWarning,0839.1,5.00,000.00,021.2,020.5,000.0,029.5,022.6,9.6,0000.0,0008.19,0006.09,0005.93
2023-10-30 03:42:00,SystemResetWarning,0839.1,4.99,000.00,021.2,020.3,000.0,029.5,022.5,9.6,0000.0,0008.17,0006.08,0005.93
2023-10-30 03:43:00,SystemResetWarning,0839.1,4.99,000.00,021.1,020.2,000.0,029.5,022.5,9.6,0000.0,0008.15,0006.07,0005.92
2023-10-30 03:44:00,SystemResetWarning,0839.1,5.00,000.00,021.1,020.0,000.0,029.5,022.4,9.6,0000.0,0008.14,0006.06,0005.93
2023-10-30 03:45:00,SystemResetWarning,0839.1,5.00,000.00,021.1,019.9,000.0,029.5,022.4,9.6,0000.0,0008.10,0006.04,0005.91
2023-10-30 03:46:00,SystemResetWarning,0839.1,5.00,000.00,021.1,019.8,000.0,029.5,022.3,9.6,0000.0,0008.10,0006.05,0005.92
2023-10-30 03:47:00,SystemResetWarning,0839.1,5.00,000.00,021.0,019.7,000.0,029.5,022.3,9.6,0000.0,0008.14,0006.06,0005.92
2023-10-30 03:48:00,SystemResetWarning,0839.1,5.01,000.00,021.0,019.7,000.0,029.5,022.3,9.7,0000.8,0008.15,0006.07,0005.93
2023-10-30 03:49:00,SystemResetWarning,0839.2,5.01,000.00,021.0,020.2,000.0,029.4,022.7,9.6,0002.6,0008.16,0006.08,0005.93
2023-10-30 03:50:00,SystemResetWarning,0839.2,5.00,000.00,021.2,021.1,000.0,029.3,023.1,9.6,0002.5,0008.17,0006.08,0005.93
2023-10-30 03:51:00,SystemResetWarning,0839.2,4.99,000.00,021.3,021.3,000.0,029.4,023.1,9.5,0001.5,0008.10,0006.08,0005.94
2023-10-30 03:52:00,SystemResetWarning,0839.2,4.99,000.00,021.3,021.1,000.0,029.5,022.9,9.6,0001.0,0007.93,0006.06,0005.92
2023-10-30 03:53:00,SystemResetWarning,0839.2,5.00,000.00,021.3,020.9,000.0,029.5,022.8,9.6,0000.2,0007.93,0006.05,0005.91
2023-10-30 03:54:00,SystemResetWarning,0839.2,5.00,000.00,021.2,020.7,000.0,029.5,022.7,9.6,-000.5,0007.96,0006.06,0005.92
2023-10-30 03:55:00,SystemResetWarning,0839.3,5.00,000.00,021.2,020.4,000.0,029.5,022.6,9.6,-000.3,0007.95,0006.07,0005.92
2023-10-30 03:56:00,SystemResetWarning,0839.3,5.01,000.00,021.2,020.3,000.0,029.5,022.5,9.6,0000.5,0007.96,0006.09,0005.94
2023-10-30 03:57:00,SystemResetWarning,0839.3,5.00,000.00,021.1,020.1,000.0,029.5,022.5,9.6,0000.1,0007.96,0006.10,0005.97
2023-10-30 03:58:00,SystemResetWarning,0839.2,5.00,000.00,021.1,020.0,000.0,029.5,022.4,9.6,0000.0,0007.93,0006.10,0005.97
2023-10-30 03:59:00,SystemResetWarning,0839.2,4.99,000.00,021.1,019.8,000.0,029.5,022.3,9.6,0000.0,0007.93,0006.10,0005.99
